QPF
0.01 0.01 0.02 0.02 0.02 0.02 0.03 0.03 0.05 0.07 0.08 0.07 0.06 0.09 0.10 0.08 0.08 0.09 0.10 0.09 0.09 0.09 0.10 0.11 0.12 0.11 0.10 0.08 0.07 0.08 0.08 0.09 0.10 0.09 0.10 0.10 0.11 0.09 0.10 0.09 0.08 0.09 0.10
0.02 0.02 0.02 0.03 0.02 0.03 0.03 0.03 0.04 0.06 0.09 0.09 0.08 0.09 0.12 0.11 0.08 0.08 0.08 0.08 0.08 0.09 0.09 0.11 0.12 0.11 0.10 0.08 0.08 0.07 0.07 0.07 0.08 0.09 0.11 0.13 0.13 0.11 0.10 0.10 0.10 0.09 0.08
0.02 0.03 0.04 0.04 0.04 0.04 0.03 0.03 0.04 0.06 0.09 0.11 0.10 0.09 0.11 0.12 0.10 0.08 0.08 0.08 0.07 0.08 0.08 0.09 0.10 0.11 0.09 0.07 0.07 0.08 0.07 0.07 0.07 0.07 0.08 0.10 0.13 0.14 0.12 0.11 0.11 0.11 0.09
0.03 0.04 0.06 0.06 0.04 0.04 0.04 0.03 0.04 0.06 0.10 0.11 0.10 0.10 0.10 0.11 0.12 0.11 0.09 0.09 0.08 0.08 0.08 0.08 0.09 0.10 0.09 0.07 0.07 0.07 0.07 0.07 0.07 0.07 0.07 0.08 0.11 0.13 0.13 0.11 0.11 0.11 0.10
0.03 0.04 0.07 0.06 0.05 0.05 0.04 0.04 0.05 0.07 0.10 0.11 0.10 0.10 0.10 0.10 0.12 0.13 0.11 0.09 0.09 0.09 0.08 0.08 0.09 0.11 0.11 0.09 0.09 0.08 0.08 0.09 0.09 0.09 0.08 0.08 0.09 0.12 0.12 0.10 0.09 0.09 0.08
0.03 0.04 0.05 0.06 0.05 0.05 0.04 0.04 0.06 0.10 0.11 0.10 0.11 0.10 0.10 0.10 0.11 0.12 0.12 0.10 0.11 0.11 0.11 0.10 0.11 0.12 0.11 0.11 0.10 0.09 0.09 0.09 0.10 0.10 0.08 0.07 0.07 0.07 0.08 0.08 0.09 0.09 0.09
0.03 0.02 0.04 0.06 0.06 0.05 0.04 0.04 0.06 0.09 0.10 0.10 0.11 0.11 0.10 0.10 0.10 0.11 0.11 0.11 0.12 0.12 0.13 0.12 0.12 0.11 0.10 0.10 0.11 0.10 0.09 0.08 0.09 0.09 0.08 0.06 0.06 0.06 0.07 0.08 0.08 0.07 0.07
0.03 0.02 0.03 0.06 0.06 0.05 0.04 0.05 0.07 0.09 0.09 0.09 0.09 0.09 0.10 0.10 0.10 0.10 0.12 0.14 0.15 0.14 0.14 0.11 0.10 0.10 0.10 0.10 0.09 0.08 0.07 0.07 0.07 0.07 0.06 0.05 0.05 0.06 0.07 0.07 0.08 0.08 0.07
0.03 0.02 0.03 0.05 0.07 0.07 0.06 0.06 0.08 0.10 0.08 0.09 0.09 0.08 0.08 0.09 0.10 0.11 0.13 0.17 0.18 0.16 0.13 0.10 0.09 0.09 0.10 0.09 0.08 0.08 0.08 0.07 0.07 0.06 0.05 0.05 0.05 0.06 0.08 0.08 0.08 0.09 0.09
0.03 0.02 0.03 0.04 0.06 0.07 0.07 0.08 0.09 0.08 0.07 0.08 0.08 0.07 0.07 0.08 0.09 0.11 0.14 0.19 0.18 0.16 0.14 0.12 0.12 0.11 0.10 0.09 0.08 0.07 0.07 0.06 0.05 0.05 0.05 0.06 0.05 0.05 0.07 0.08 0.07 0.08 0.07
0.03 0.02 0.03 0.04 0.05 0.06 0.09 0.09 0.08 0.07 0.06 0.07 0.07 0.07 0.08 0.09 0.08 0.10 0.15 0.17 0.16 0.15 0.14 0.14 0.13 0.13 0.11 0.10 0.09 0.07 0.06 0.05 0.04 0.04 0.05 0.05 0.06 0.06 0.06 0.06 0.06 0.06 0.05
0.03 0.03 0.03 0.05 0.07 0.09 0.10 0.08 0.06 0.06 0.07 0.07 0.07 0.09 0.12 0.11 0.10 0.12 0.15 0.15 0.15 0.13 0.13 0.12 0.12 0.13 0.11 0.11 0.10 0.09 0.08 0.06 0.05 0.06 0.06 0.06 0.07 0.07 0.07 0.06 0.06 0.06 0.05
0.03 0.03 0.05 0.09 0.09 0.09 0.08 0.06 0.06 0.06 0.07 0.08 0.09 0.10 0.15 0.16 0.14 0.14 0.13 0.14 0.14 0.12 0.12 0.12 0.12 0.12 0.11 0.10 0.10 0.10 0.09 0.09 0.08 0.07 0.06 0.06 0.05 0.05 0.05 0.05 0.05 0.05 0.05
0.04 0.05 0.08 0.09 0.08 0.07 0.06 0.06 0.06 0.07 0.07 0.08 0.10 0.12 0.14 0.16 0.16 0.16 0.15 0.15 0.14 0.13 0.15 0.14 0.13 0.13 0.12 0.11 0.11 0.11 0.10 0.09 0.08 0.07 0.05 0.05 0.04 0.04 0.04 0.04 0.04 0.04 0.04
0.04 0.05 0.06 0.06 0.06 0.07 0.07 0.07 0.07 0.07 0.08 0.08 0.10 0.12 0.13 0.14 0.16 0.16 0.15 0.15 0.15 0.14 0.14 0.15 0.15 0.15 0.13 0.12 0.12 0.12 0.11 0.11 0.09 0.07 0.05 0.05 0.05 0.05 0.04 0.04 0.04 0.04 0.03
0.04 0.04 0.04 0.04 0.05 0.07 0.07 0.08 0.09 0.09 0.09 0.10 0.11 0.12 0.12 0.12 0.15 0.16 0.15 0.15 0.15 0.13 0.12 0.14 0.15 0.12 0.10 0.10 0.11 0.11 0.10 0.09 0.08 0.07 0.06 0.05 0.05 0.04 0.04 0.04 0.04 0.04 0.03
0.03 0.04 0.04 0.04 0.05 0.06 0.06 0.06 0.08 0.10 0.11 0.10 0.09 0.10 0.12 0.13 0.13 0.14 0.15 0.15 0.12 0.10 0.10 0.11 0.12 0.11 0.08 0.07 0.08 0.08 0.08 0.08 0.07 0.07 0.07 0.06 0.05 0.04 0.03 0.03 0.04 0.04 0.03
0.03 0.04 0.04 0.05 0.06 0.06 0.06 0.05 0.06 0.07 0.09 0.10 0.10 0.09 0.11 0.12 0.12 0.11 0.11 0.12 0.10 0.08 0.09 0.10 0.10 0.10 0.10 0.08 0.07 0.07 0.07 0.08 0.09 0.08 0.07 0.06 0.05 0.04 0.04 0.03 0.03 0.03 0.03
0.03 0.03 0.04 0.05 0.06 0.06 0.06 0.05 0.05 0.05 0.06 0.08 0.10 0.10 0.11 0.11 0.10 0.11 0.10 0.09 0.08 0.08 0.08 0.08 0.09 0.08 0.08 0.09 0.08 0.07 0.07 0.08 0.08 0.08 0.07 0.06 0.05 0.05 0.04 0.04 0.04 0.04 0.04
0.03 0.03 0.04 0.05 0.06 0.06 0.06 0.05 0.04 0.04 0.05 0.06 0.08 0.09 0.10 0.11 0.10 0.10 0.10 0.09 0.08 0.08 0.08 0.08 0.08 0.08 0.08 0.09 0.09 0.09 0.08 0.08 0.08 0.08 0.07 0.06 0.05 0.05 0.04 0.04 0.04 0.04 0.04
0.03 0.03 0.04 0.05 0.05 0.06 0.05 0.04 0.04 0.03 0.04 0.06 0.07 0.08 0.09 0.09 0.09 0.08 0.08 0.09 0.08 0.08 0.08 0.08 0.08 0.08 0.08 0.08 0.09 0.09 0.08 0.08 0.08 0.07 0.06 0.06 0.05 0.05 0.04 0.04 0.05 0.05 0.05
0.03 0.04 0.04 0.04 0.04 0.05 0.05 0.05 0.03 0.03 0.04 0.05 0.06 0.07 0.08 0.08 0.08 0.08 0.08 0.08 0.08 0.09 0.09 0.08 0.07 0.07 0.07 0.07 0.07 0.07 0.07 0.07 0.08 0.07 0.07 0.05 0.05 0.04 0.05 0.05 0.05 0.05 0.05
0.03 0.03 0.03 0.03 0.04 0.05 0.05 0.05 0.04 0.04 0.04 0.04 0.05 0.06 0.06 0.06 0.07 0.08 0.09 0.08 0.09 0.10 0.09 0.07 0.06 0.07 0.07 0.06 0.06 0.06 0.06 0.07 0.07 0.07 0.06 0.05 0.05 0.04 0.05 0.05 0.05 0.04 0.04
0.03 0.03 0.03 0.03 0.03 0.04 0.05 0.05 0.05 0.05 0.05 0.05 0.05 0.05 0.06 0.06 0.06 0.07 0.08 0.09 0.10 0.10 0.09 0.08 0.07 0.06 0.05 0.06 0.07 0.07 0.07 0.07 0.08 0.07 0.06 0.05 0.04 0.04 0.05 0.05 0.04 0.05 0.05
0.03 0.03 0.03 0.03 0.04 0.04 0.05 0.05 0.05 0.06 0.07 0.06 0.05 0.05 0.05 0.05 0.05 0.06 0.08 0.09 0.09 0.09 0.08 0.08 0.08 0.07 0.05 0.04 0.05 0.07 0.08 0.09 0.08 0.08 0.07 0.06 0.05 0.05 0.04 0.04 0.04 0.04 0.04
0.03 0.03 0.03 0.04 0.05 0.05 0.05 0.05 0.05 0.06 0.07 0.06 0.06 0.05 0.05 0.05 0.05 0.06 0.07 0.07 0.08 0.07 0.06 0.07 0.07 0.07 0.06 0.05 0.06 0.07 0.08 0.08 0.07 0.08 0.07 0.07 0.06 0.05 0.05 0.05 0.05 0.05 0.04
MSLP
996.53 995.39 994.26 993.15 992.09 991.13 990.34 989.78 989.49 989.50 989.80 990.37 991.14 992.05 992.99 993.90 994.71 995.37 995.87 996.21 996.40 996.48 996.50 996.50 996.52 996.60 996.78 997.07 997.48 998.02 998.68 999.45 1000.31 1001.23 1002.19 1003.17 1004.13 1005.05 1005.93 1006.74 1007.48 1008.17 1008.80
995.40 994.21 993.07 991.98 991.00 990.15 989.48 989.05 988.89 989.01 989.41 990.04 990.84 991.75 992.66 993.53 994.27 994.87 995.29 995.56 995.70 995.74 995.75 995.76 995.81 995.94 996.18 996.54 997.02 997.63 998.35 999.18 1000.09 1001.07 1002.08 1003.11 1004.13 1005.12 1006.07 1006.95 1007.76 1008.49 1009.13
994.39 993.18 992.07 991.06 990.19 989.48 988.97 988.69 988.65 988.87 989.32 989.97 990.75 991.59 992.42 993.18 993.82 994.31 994.65 994.85 994.94 994.97 994.98 995.03 995.13 995.34 995.65 996.09 996.66 997.34 998.12 999.00 999.96 1000.97 1002.02 1003.10 1004.16 1005.21 1006.21 1007.14 1007.99 1008.75 1009.41
993.52 992.34 991.30 990.40 989.67 989.12 988.77 988.62 988.70 988.97 989.44 990.04 990.74 991.47 992.17 992.79 993.30 993.68 993.93 994.08 994.15 994.20 994.26 994.37 994.56 994.86 995.27 995.80 996.44 997.19 998.03 998.95 999.93 1000.96 1002.03 1003.13 1004.22 1005.29 1006.32 1007.29 1008.17 1008.94 1009.60
992.84 991.71 990.77 990.00 989.43 989.03 988.82 988.78 988.92 989.22 989.64 990.16 990.72 991.29 991.83 992.30 992.67 992.95 993.15 993.28 993.38 993.49 993.64 993.85 994.16 994.57 995.09 995.71 996.43 997.23 998.10 999.04 1000.03 1001.06 1002.13 1003.21 1004.30 1005.38 1006.41 1007.39 1008.27 1009.05 1009.71
992.38 991.33 990.49 989.86 989.42 989.16 989.05 989.09 989.25 989.51 989.85 990.24 990.64 991.04 991.41 991.73 992.00 992.21 992.39 992.56 992.73 992.95 993.22 993.58 994.02 994.55 995.18 995.88 996.66 997.49 998.38 999.31 1000.28 1001.28 1002.32 1003.37 1004.44 1005.49 1006.51 1007.47 1008.34 1009.11 1009.76
992.17 991.20 990.47 989.95 989.62 989.45 989.41 989.48 989.62 989.81 990.03 990.28 990.52 990.75 990.97 991.18 991.38 991.57 991.78 992.03 992.32 992.68 993.11 993.62 994.20 994.85 995.57 996.34 997.15 997.99 998.87 999.77 1000.70 1001.65 1002.64 1003.64 1004.66 1005.67 1006.65 1007.57 1008.43 1009.18 1009.81
992.23 991.34 990.68 990.25 989.99 989.88 989.88 989.93 990.02 990.13 990.23 990.33 990.43 990.53 990.65 990.79 990.96 991.19 991.48 991.84 992.28 992.80 993.39 994.04 994.75 995.51 996.29 997.10 997.91 998.74 999.58 1000.44 1001.31 1002.20 1003.12 1004.06 1005.02 1005.97 1006.89 1007.77 1008.59 1009.31 1009.93
992.55 991.71 991.12 990.74 990.53 990.45 990.44 990.46 990.50 990.52 990.52 990.52 990.51 990.53 990.59 990.71 990.92 991.21 991.61 992.11 992.70 993.37 994.10 994.88 995.69 996.51 997.33 998.14 998.94 999.73 1000.52 1001.32 1002.12 1002.95 1003.80 1004.67 1005.55 1006.43 1007.29 1008.12 1008.88 1009.57 1010.16
993.11 992.31 991.75 991.40 991.21 991.14 991.12 991.12 991.11 991.07 991.01 990.94 990.89 990.87 990.93 991.09 991.36 991.75 992.26 992.89 993.62 994.41 995.26 996.12 996.98 997.82 998.64 999.43 1000.19 1000.93 1001.66 1002.39 1003.13 1003.89 1004.68 1005.47 1006.28 1007.08 1007.87 1008.62 1009.32 1009.96 1010.52
993.87 993.09 992.56 992.22 992.05 991.98 991.96 991.95 991.92 991.87 991.79 991.71 991.66 991.67 991.77 991.98 992.34 992.83 993.45 994.18 995.00 995.88 996.78 997.68 998.55 999.38 1000.16 1000.90 1001.61 1002.29 1002.96 1003.63 1004.31 1005.01 1005.73 1006.45 1007.19 1007.91 1008.61 1009.28 1009.91 1010.47 1010.98
994.80 994.04 993.52 993.20 993.04 992.99 992.99 992.99 992.99 992.96 992.92 992.88 992.88 992.94 993.11 993.40 993.83 994.40 995.10 995.90 996.77 997.67 998.58 999.46 1000.30 1001.09 1001.81 1002.49 1003.13 1003.75 1004.36 1004.98 1005.61 1006.25 1006.91 1007.57 1008.23 1008.87 1009.47 1010.05 1010.58 1011.07 1011.51
995.88 995.14 994.63 994.34 994.20 994.18 994.22 994.28 994.34 994.38 994.41 994.44 994.51 994.65 994.89 995.25 995.74 996.36 997.08 997.90 998.77 999.65 1000.52 1001.35 1002.13 1002.84 1003.49 1004.10 1004.68 1005.24 1005.80 1006.38 1006.97 1007.56 1008.17 1008.76 1009.34 1009.88 1010.39 1010.86 1011.29 1011.68 1012.04
997.08 996.36 995.88 995.62 995.53 995.56 995.67 995.81 995.95 996.08 996.20 996.33 996.48 996.70 996.99 997.40 997.91 998.53 999.25 1000.03 1000.85 1001.68 1002.47 1003.22 1003.92 1004.55 1005.13 1005.67 1006.20 1006.71 1007.24 1007.77 1008.32 1008.87 1009.42 1009.94 1010.44 1010.89 1011.29 1011.65 1011.97 1012.26 1012.52
998.38 997.69 997.25 997.03 997.00 997.10 997.30 997.53 997.77 998.00 998.22 998.43 998.66 998.93 999.26 999.67 1000.18 1000.77 1001.43 1002.15 1002.89 1003.62 1004.33 1004.99 1005.60 1006.16 1006.67 1007.16 1007.64 1008.12 1008.60 1009.11 1009.62 1010.12 1010.61 1011.06 1011.47 1011.83 1012.13 1012.38 1012.58 1012.76 1012.92
999.76 999.10 998.70 998.54 998.58 998.77 999.05 999.38 999.72 1000.04 1000.34 1000.62 1000.90 1001.20 1001.53 1001.92 1002.38 1002.91 1003.50 1004.12 1004.77 1005.41 1006.03 1006.61 1007.14 1007.64 1008.10 1008.54 1008.98 1009.43 1009.89 1010.35 1010.82 1011.27 1011.70 1012.08 1012.41 1012.67 1012.87 1013.01 1013.11 1013.19 1013.25
1001.18 1000.57 1000.22 1000.12 1000.22 1000.49 1000.85 1001.27 1001.69 1002.09 1002.45 1002.78 1003.08 1003.38 1003.69 1004.04 1004.44 1004.89 1005.39 1005.93 1006.48 1007.04 1007.58 1008.08 1008.56 1009.01 1009.43 1009.84 1010.25 1010.66 1011.08 1011.51 1011.92 1012.32 1012.68 1012.98 1013.23 1013.40 1013.51 1013.57 1013.58 1013.56 1013.54
1002.60 1002.04 1001.75 1001.71 1001.88 1002.21 1002.64 1003.12 1003.60 1004.05 1004.45 1004.80 1005.10 1005.39 1005.67 1005.97 1006.30 1006.68 1007.10 1007.56 1008.04 1008.53 1009.01 1009.46 1009.90 1010.31 1010.70 1011.08 1011.45 1011.83 1012.20 1012.57 1012.93 1013.26 1013.55 1013.79 1013.96 1014.06 1014.09 1014.07 1014.01 1013.92 1013.83
1004.00 1003.50 1003.26 1003.27 1003.49 1003.87 1004.35 1004.87 1005.38 1005.86 1006.28 1006.63 1006.93 1007.19 1007.44 1007.69 1007.98 1008.30 1008.67 1009.07 1009.50 1009.94 1010.37 1010.79 1011.20 1011.58 1011.94 1012.28 1012.61 1012.94 1013.26 1013.56 1013.86 1014.12 1014.34 1014.50 1014.60 1014.64 1014.62 1014.55 1014.43 1014.29 1014.14
1005.36 1004.90 1004.71 1004.77 1005.02 1005.43 1005.93 1006.47 1007.00 1007.48 1007.90 1008.25 1008.54 1008.79 1009.02 1009.25 1009.51 1009.80 1010.13 1010.50 1010.90 1011.31 1011.72 1012.11 1012.48 1012.83 1013.15 1013.45 1013.73 1013.99 1014.24 1014.48 1014.70 1014.88 1015.03 1015.14 1015.19 1015.18 1015.11 1015.00 1014.85 1014.67 1014.47
1006.66 1006.26 1006.10 1006.18 1006.45 1006.87 1007.37 1007.91 1008.43 1008.91 1009.32 1009.67 1009.96 1010.21 1010.44 1010.67 1010.93 1011.21 1011.54 1011.90 1012.28 1012.67 1013.05 1013.42 1013.75 1014.06 1014.33 1014.56 1014.77 1014.97 1015.14 1015.30 1015.44 1015.56 1015.65 1015.69 1015.70 1015.65 1015.56 1015.42 1015.25 1015.04 1014.81
1007.92 1007.56 1007.43 1007.52 1007.78 1008.19 1008.67 1009.18 1009.68 1010.15 1010.56 1010.91 1011.21 1011.47 1011.73 1011.98 1012.26 1012.57 1012.90 1013.26 1013.64 1014.01 1014.36 1014.69 1014.97 1015.22 1015.42 1015.58 1015.72 1015.83 1015.92 1016.01 1016.07 1016.13 1016.16 1016.16 1016.13 1016.06 1015.95 1015.79 1015.60 1015.37 1015.12
1009.16 1008.82 1008.70 1008.78 1009.02 1009.39 1009.83 1010.30 1010.78 1011.22 1011.63 1011.99 1012.32 1012.62 1012.91 1013.21 1013.52 1013.85 1014.21 1014.57 1014.93 1015.27 1015.59 1015.86 1016.08 1016.25 1016.37 1016.46 1016.51 1016.54 1016.56 1016.57 1016.57 1016.57 1016.56 1016.52 1016.47 1016.38 1016.25 1016.09 1015.88 1015.64 1015.37
1010.37 1010.05 1009.93 1009.98 1010.18 1010.50 1010.88 1011.31 1011.75 1012.17 1012.57 1012.95 1013.31 1013.65 1013.99 1014.34 1014.69 1015.05 1015.42 1015.78 1016.12 1016.42 1016.68 1016.88 1017.02 1017.11 1017.15 1017.15 1017.13 1017.08 1017.04 1016.99 1016.94 1016.90 1016.85 1016.80 1016.72 1016.61 1016.48 1016.30 1016.09 1015.84 1015.55
1011.58 1011.26 1011.11 1011.13 1011.27 1011.52 1011.85 1012.22 1012.61 1013.02 1013.42 1013.81 1014.20 1014.59 1014.98 1015.37 1015.76 1016.14 1016.52 1016.86 1017.16 1017.41 1017.60 1017.72 1017.78 1017.79 1017.75 1017.67 1017.58 1017.48 1017.38 1017.29 1017.22 1017.15 1017.08 1017.01 1016.92 1016.80 1016.66 1016.47 1016.25 1015.99 1015.70
1012.75 1012.43 1012.25 1012.21 1012.29 1012.47 1012.73 1013.04 1013.40 1013.78 1014.18 1014.59 1015.01 1015.44 1015.87 1016.30 1016.71 1017.11 1017.47 1017.78 1018.04 1018.23 1018.34 1018.39 1018.37 1018.30 1018.19 1018.06 1017.92 1017.78 1017.65 1017.55 1017.46 1017.38 1017.30 1017.22 1017.12 1017.00 1016.84 1016.65 1016.42 1016.16 1015.87
Thickness
5496 5493 5490 5487 5486 5484 5483 5482 5481 5481 5481 5481 5482 5483 5486 5488 5491 5492 5495 5499 5502 5507 5511 5515 5520 5523 5528 5533 5537 5541 5545 5549 5552 5557 5561 5567 5570 5573 5575 5576 5578 5578 5577
5488 5485 5482 5480 5477 5475 5475 5474 5473 5472 5472 5471 5472 5473 5476 5480 5483 5485 5488 5492 5496 5500 5504 5508 5513 5517 5522 5527 5531 5535 5539 5543 5546 5550 5553 5558 5562 5565 5567 5568 5569 5570 5569
5481 5477 5474 5471 5469 5468 5467 5467 5465 5463 5463 5463 5463 5464 5467 5471 5475 5479 5482 5485 5490 5495 5499 5503 5508 5511 5516 5521 5526 5529 5534 5537 5540 5543 5547 5550 5553 5556 5557 5558 5559 5560 5561
5473 5470 5466 5464 5463 5462 5461 5461 5458 5456 5455 5455 5456 5457 5460 5464 5468 5473 5476 5479 5483 5489 5495 5499 5504 5508 5512 5517 5521 5525 5528 5530 5533 5536 5540 5542 5545 5547 5549 5550 5549 5550 5551
5466 5462 5460 5459 5457 5456 5455 5454 5452 5450 5449 5449 5449 5451 5454 5458 5462 5465 5469 5473 5477 5484 5490 5495 5500 5504 5509 5513 5518 5521 5524 5526 5528 5531 5534 5535 5537 5539 5542 5543 5542 5541 5540
5458 5455 5453 5452 5451 5449 5448 5447 5445 5444 5443 5443 5443 5446 5449 5453 5456 5459 5462 5467 5473 5480 5487 5492 5495 5499 5504 5508 5514 5518 5521 5523 5525 5527 5529 5533 5535 5537 5537 5537 5535 5533 5531
5450 5448 5447 5445 5444 5443 5442 5441 5439 5438 5438 5438 5438 5440 5444 5447 5451 5455 5458 5463 5470 5477 5483 5487 5492 5496 5500 5504 5507 5511 5516 5520 5524 5528 5529 5532 5533 5535 5533 5531 5531 5529 5527
5441 5439 5438 5437 5437 5438 5436 5435 5434 5433 5433 5434 5434 5437 5440 5443 5447 5451 5454 5459 5466 5474 5479 5485 5489 5493 5496 5499 5502 5505 5509 5514 5520 5523 5526 5529 5529 5529 5530 5529 5525 5519 5516
5434 5432 5431 5431 5432 5432 5431 5431 5430 5429 5430 5431 5432 5434 5436 5439 5443 5447 5451 5455 5462 5470 5476 5482 5486 5491 5494 5496 5498 5500 5504 5508 5511 5514 5517 5520 5521 5522 5522 5519 5515 5512 5508
5427 5425 5425 5426 5425 5425 5425 5426 5426 5426 5428 5430 5431 5432 5434 5438 5441 5444 5448 5452 5458 5466 5472 5477 5483 5489 5492 5494 5495 5498 5500 5502 5503 5504 5507 5509 5510 5512 5513 5514 5514 5510 5506
5421 5420 5420 5419 5419 5420 5420 5421 5422 5423 5425 5426 5428 5430 5432 5436 5438 5441 5445 5449 5456 5463 5470 5475 5480 5486 5489 5492 5494 5496 5499 5498 5498 5498 5499 5500 5502 5502 5503 5504 5506 5507 5504
5417 5416 5416 5415 5414 5415 5415 5417 5418 5419 5421 5423 5425 5427 5430 5432 5435 5438 5443 5448 5454 5461 5467 5473 5478 5482 5485 5488 5490 5492 5493 5493 5493 5493 5493 5493 5494 5494 5494 5496 5496 5496 5497
5412 5412 5411 5410 5410 5410 5411 5412 5414 5415 5416 5418 5421 5424 5427 5430 5432 5436 5441 5447 5452 5457 5464 5470 5475 5478 5481 5484 5486 5487 5487 5489 5489 5489 5488 5487 5487 5487 5487 5486 5486 5486 5485
5406 5406 5405 5405 5405 5406 5406 5407 5408 5410 5412 5414 5416 5419 5422 5425 5429 5433 5437 5442 5448 5454 5459 5465 5470 5474 5477 5480 5481 5481 5482 5484 5486 5485 5483 5480 5479 5479 5480 5480 5479 5478 5474
5399 5399 5398 5398 5398 5399 5400 5401 5403 5405 5406 5409 5412 5414 5418 5423 5426 5431 5436 5441 5447 5452 5456 5461 5465 5468 5470 5472 5474 5475 5476 5477 5478 5478 5477 5475 5473 5473 5473 5473 5472 5471 5466
5392 5392 5391 5390 5390 5391 5393 5396 5398 5399 5402 5405 5409 5412 5416 5420 5425 5429 5434 5439 5444 5450 5455 5458 5461 5465 5467 5468 5469 5469 5470 5471 5472 5472 5472 5471 5469 5468 5466 5465 5465 5463 5459
5383 5383 5382 5383 5383 5384 5386 5388 5392 5396 5398 5402 5405 5409 5412 5417 5421 5426 5431 5437 5442 5448 5452 5456 5458 5460 5462 5463 5464 5464 5465 5466 5467 5467 5467 5465 5464 5462 5461 5459 5458 5455 5451
5376 5377 5377 5377 5377 5379 5381 5383 5386 5389 5393 5397 5400 5403 5408 5413 5418 5423 5428 5434 5437 5443 5448 5452 5455 5456 5458 5459 5460 5460 5460 5460 5461 5462 5461 5460 5458 5457 5456 5454 5452 5449 5444
5371 5371 5372 5372 5373 5375 5377 5379 5381 5384 5387 5390 5394 5398 5403 5408 5414 5419 5424 5429 5433 5436 5441 5446 5449 5452 5454 5455 5455 5456 5456 5457 5457 5457 5456 5454 5453 5452 5451 5448 5445 5442 5438
5365 5366 5368 5368 5369 5371 5373 5375 5377 5380 5382 5385 5389 5393 5397 5403 5408 5413 5417 5422 5427 5431 5435 5439 5443 5446 5449 5450 5450 5451 5451 5450 5450 5451 5450 5449 5448 5448 5446 5443 5439 5435 5432
5360 5361 5363 5364 5365 5366 5368 5370 5373 5376 5378 5381 5385 5390 5395 5399 5403 5408 5412 5417 5421 5426 5429 5434 5437 5441 5444 5446 5446 5446 5445 5445 5444 5446 5445 5445 5444 5442 5440 5437 5433 5430 5426
5354 5356 5357 5358 5360 5362 5364 5366 5368 5371 5374 5378 5383 5387 5393 5396 5400 5404 5407 5411 5416 5421 5425 5429 5432 5435 5439 5440 5441 5441 5441 5441 5441 5442 5442 5441 5439 5437 5433 5431 5428 5424 5421
5349 5351 5352 5354 5356 5359 5361 5362 5365 5368 5371 5376 5380 5384 5388 5392 5396 5399 5402 5406 5411 5415 5419 5423 5426 5430 5433 5435 5437 5439 5440 5439 5439 5441 5440 5437 5434 5432 5430 5427 5424 5421 5417
5345 5346 5348 5350 5352 5354 5356 5358 5361 5365 5369 5373 5377 5381 5384 5388 5391 5395 5399 5403 5406 5410 5414 5418 5422 5425 5429 5431 5433 5435 5436 5436 5436 5436 5436 5434 5431 5429 5426 5423 5421 5417 5414
5340 5342 5343 5345 5348 5350 5352 5355 5358 5362 5366 5369 5373 5377 5380 5384 5388 5391 5395 5399 5403 5406 5410 5414 5417 5421 5425 5428 5430 5431 5432 5433 5433 5432 5431 5430 5427 5425 5423 5421 5417 5413 5410
5336 5338 5340 5341 5344 5346 5349 5352 5355 5358 5362 5365 5369 5373 5376 5380 5384 5387 5392 5395 5399 5402 5406 5410 5414 5418 5421 5424 5427 5428 5428 5429 5429 5428 5428 5426 5424 5422 5419 5416 5413 5409 5406